,,,PA_Meas_PMT16A,,PR_Meas_QMR101_102,,RH_Meas_QMH101,,SR_Meas_QMS101,,TA_Meas_QMH101,,GenWind,,GenWind,
date,time,status,PA,status,PR,status,RH,status,SR,status,TA,status,DirAvg,status,SpdAvg,
2012-02-21, 00:00:04,VALID,999.936,VALID,0,VALID,92.4863,VALID,0,VALID,24.7337,VALID,98,VALID,0.570703,
2012-02-21, 00:01:04,VALID,999.895,VALID,0,VALID,92.4557,VALID,0,VALID,24.716,VALID,98,VALID,0.371875,
2012-02-21, 00:02:04,VALID,999.887,VALID,0,VALID,92.5397,VALID,0,VALID,24.7356,VALID,98,VALID,0.597656,
2012-02-21, 00:03:04,VALID,999.849,VALID,0,VALID,92.6465,VALID,0,VALID,24.7337,VALID,104,VALID,0.482031,
2012-02-21, 00:04:04,VALID,999.827,VALID,0,VALID,92.6388,VALID,0,VALID,24.7551,VALID,104,VALID,0.124609,
2012-02-21, 00:05:04,VALID,999.792,VALID,0,VALID,92.6312,VALID,0,VALID,24.7142,VALID,104,VALID,0.00351562,
2012-02-21, 00:06:04,VALID,999.8,VALID,0,VALID,92.6007,VALID,0,VALID,24.7356,VALID,104,VALID,0,
2012-02-21, 00:07:04,VALID,999.761,VALID,0,VALID,92.6083,VALID,0,VALID,24.7356,VALID,104,VALID,0,
2012-02-21, 00:08:04,VALID,999.747,VALID,0,VALID,92.5931,VALID,0,VALID,24.716,VALID,104,VALID,0,
2012-02-21, 00:09:04,VALID,999.734,VALID,0,VALID,92.5626,VALID,0,VALID,24.716,VALID,104,VALID,0,
2012-02-21, 00:10:04,VALID,999.702,VALID,0,VALID,92.5473,VALID,0,VALID,24.6965,VALID,104,VALID,0,
2012-02-21, 00:11:04,VALID,999.684,VALID,0,VALID,92.5626,VALID,0,VALID,24.6751,VALID,104,VALID,0,
2012-02-21, 00:12:04,VALID,999.668,VALID,0,VALID,92.5626,VALID,0,VALID,24.6965,VALID,104,VALID,0,
2012-02-21, 00:13:04,VALID,999.637,VALID,0,VALID,92.5854,VALID,0,VALID,24.6965,VALID,104,VALID,0,
2012-02-21, 00:14:04,VALID,999.619,VALID,0,VALID,92.5931,VALID,0,VALID,24.677,VALID,104,VALID,0,
2012-02-21, 00:15:04,VALID,999.618,VALID,0,VALID,92.5549,VALID,0,VALID,24.677,VALID,104,VALID,0,
2012-02-21, 00:16:04,VALID,999.596,VALID,0,VALID,92.5091,VALID,0,VALID,24.6556,VALID,104,VALID,0,
2012-02-21, 00:17:04,VALID,999.622,VALID,0,VALID,92.4481,VALID,0,VALID,24.638,VALID,104,VALID,0,
2012-02-21, 00:18:04,VALID,999.598,VALID,0,VALID,92.3794,VALID,0,VALID,24.638,VALID,104,VALID,0.138281,
2012-02-21, 00:19:04,VALID,999.595,VALID,0,VALID,92.2879,VALID,0,VALID,24.6166,VALID,104,VALID,0,
2012-02-21, 00:20:04,VALID,999.582,VALID,0,VALID,92.2726,VALID,0,VALID,24.6184,VALID,104,VALID,0,
2012-02-21, 00:21:04,VALID,999.586,VALID,0,VALID,92.2345,VALID,0,VALID,24.5989,VALID,134,VALID,0.509375,
2012-02-21, 00:22:04,VALID,999.562,VALID,0,VALID,92.1048,VALID,0,VALID,24.5775,VALID,135,VALID,0.666016,
2012-02-21, 00:23:04,VALID,999.566,VALID,0,VALID,91.8911,VALID,0,VALID,24.5794,VALID,135,VALID,0.96875,
2012-02-21, 00:24:04,VALID,999.582,VALID,0,VALID,91.6165,VALID,0,VALID,24.5404,VALID,135,VALID,1.06797,
2012-02-21, 00:25:04,VALID,999.533,VALID,0,VALID,91.235,VALID,0,VALID,24.5209,VALID,135,VALID,0.968359,
2012-02-21, 00:26:04,VALID,999.52,VALID,0,VALID,91.0061,VALID,0,VALID,24.5013,VALID,125,VALID,1.15313,
2012-02-21, 00:27:04,VALID,999.482,VALID,0,VALID,90.8764,VALID,0,VALID,24.4818,VALID,136,VALID,1.46563,
2012-02-21, 00:28:04,VALID,999.464,VALID,0,VALID,90.8001,VALID,0,VALID,24.4623,VALID,133,VALID,1.08477,
2012-02-21, 00:29:04,VALID,999.463,VALID,0,VALID,90.8001,VALID,0,VALID,24.4428,VALID,134,VALID,1.18164,
2012-02-21, 00:30:04,VALID,999.445,VALID,0,VALID,90.823,VALID,0,VALID,24.4233,VALID,129,VALID,0.903125,
2012-02-21, 00:31:04,VALID,999.392,VALID,0,VALID,90.7238,VALID,0,VALID,24.4233,VALID,126,VALID,1.70234,
2012-02-21, 00:32:04,VALID,999.426,VALID,0,VALID,90.762,VALID,0,VALID,24.4233,VALID,124,VALID,1.01797,
2012-02-21, 00:33:04,VALID,999.414,VALID,0,VALID,90.8459,VALID,0,VALID,24.4233,VALID,129,VALID,1.04219,
2012-02-21, 00:34:04,VALID,999.38,VALID,0,VALID,90.9146,VALID,0,VALID,24.4019,VALID,122,VALID,1.00234,
2012-02-21, 00:35:04,VALID,999.409,VALID,0,VALID,90.9756,VALID,0,VALID,24.4037,VALID,125,VALID,0.78125,
2012-02-21, 00:36:04,VALID,999.39,VALID,0,VALID,91.0061,VALID,0,VALID,24.4019,VALID,124,VALID,0.639453,
2012-02-21, 00:37:04,VALID,999.408,VALID,0,VALID,90.9909,VALID,0,VALID,24.3824,VALID,111,VALID,0.750781,
2012-02-21, 00:38:04,VALID,999.409,VALID,0,VALID,90.9298,VALID,0,VALID,24.3842,VALID,122,VALID,0.430859,
2012-02-21, 00:39:04,VALID,999.378,VALID,0,VALID,90.9603,VALID,0,VALID,24.3824,VALID,101,VALID,0.621875,
2012-02-21, 00:40:04,VALID,999.404,VALID,0,VALID,90.9603,VALID,0,VALID,24.3824,VALID,101,VALID,0.776563,
2012-02-21, 00:41:04,VALID,999.395,VALID,0,VALID,90.9832,VALID,0,VALID,24.4037,VALID,86,VALID,0.710938,
2012-02-21, 00:42:04,VALID,999.369,VALID,0,VALID,91.0595,VALID,0,VALID,24.3824,VALID,53,VALID,0.703906,
2012-02-21, 00:43:04,VALID,999.352,VALID,0,VALID,91.1892,VALID,0,VALID,24.3824,VALID,3,VALID,0.915234,
2012-02-21, 00:44:04,VALID,999.355,VALID,0,VALID,91.3494,VALID,0,VALID,24.3824,VALID,3,VALID,0.808984,
2012-02-21, 00:45:04,VALID,999.347,VALID,0,VALID,91.4563,VALID,0,VALID,24.4037,VALID,3,VALID,0.836328,
2012-02-21, 00:46:04,VALID,999.32,VALID,0,VALID,91.4791,VALID,0,VALID,24.4233,VALID,3,VALID,0.516406,
2012-02-21, 00:47:04,VALID,999.308,VALID,0,VALID,91.4563,VALID,0,VALID,24.4233,VALID,3,VALID,0.291016,
2012-02-21, 00:48:04,VALID,999.291,VALID,0,VALID,91.4639,VALID,0,VALID,24.4019,VALID,4,VALID,0.623047,
2012-02-21, 00:49:04,VALID,999.247,VALID,0,VALID,91.3418,VALID,0,VALID,24.4233,VALID,35,VALID,0.515234,
2012-02-21, 00:50:04,VALID,999.26,VALID,0,VALID,91.2197,VALID,0,VALID,24.4233,VALID,35,VALID,0.489844,
2012-02-21, 00:51:04,VALID,999.232,VALID,0,VALID,91.2274,VALID,0,VALID,24.4409,VALID,35,VALID,0.389453,
2012-02-21, 00:52:04,VALID,999.181,VALID,0,VALID,91.1587,VALID,0,VALID,24.4409,VALID,93,VALID,0.517187,
2012-02-21, 00:53:04,VALID,999.195,VALID,0,VALID,91.0748,VALID,0,VALID,24.4818,VALID,108,VALID,0.71875,
2012-02-21, 00:54:04,VALID,999.134,VALID,0,VALID,91.0595,VALID,0,VALID,24.5013,VALID,126,VALID,0.764063,
2012-02-21, 00:55:04,VALID,999.15,VALID,0,VALID,90.9374,VALID,0,VALID,24.5013,VALID,131,VALID,1.00391,
2012-02-21, 00:56:04,VALID,999.099,VALID,0,VALID,90.884,VALID,0,VALID,24.5209,VALID,131,VALID,0.923047,
2012-02-21, 00:57:04,VALID,999.106,VALID,0,VALID,90.8459,VALID,0,VALID,24.5404,VALID,130,VALID,0.602344,
2012-02-21, 00:58:04,VALID,999.062,VALID,0,VALID,90.7467,VALID,0,VALID,24.519,VALID,120,VALID,1.1918,
2012-02-21, 00:59:04,VALID,999.07,VALID,0,VALID,90.6933,VALID,0,VALID,24.5404,VALID,113,VALID,0.930078,
2012-02-21, 01:00:04,VALID,999.07,VALID,0,VALID,90.6933,VALID,0,VALID,24.5404,VALID,119,VALID,0.731641,
2012-02-21, 01:01:04,VALID,999.076,VALID,0,VALID,90.7543,VALID,0,VALID,24.5599,VALID,104,VALID,0.656641,
2012-02-21, 01:02:04,VALID,999.064,VALID,0,VALID,90.7772,VALID,0,VALID,24.5599,VALID,106,VALID,0.770703,
2012-02-21, 01:03:04,VALID,999.043,VALID,0,VALID,90.7009,VALID,0,VALID,24.5404,VALID,107,VALID,0.761328,
2012-02-21, 01:04:04,VALID,999.051,VALID,0,VALID,90.6933,VALID,0,VALID,24.5404,VALID,107,VALID,0.875391,
2012-02-21, 01:05:04,VALID,999.018,VALID,0,VALID,90.7391,VALID,0,VALID,24.519,VALID,107,VALID,0.795703,
2012-02-21, 01:06:04,VALID,999.015,VALID,0,VALID,90.762,VALID,0,VALID,24.519,VALID,107,VALID,0.558984,
2012-02-21, 01:07:04,VALID,999.001,VALID,0,VALID,90.884,VALID,0,VALID,24.5209,VALID,107,VALID,0.571484,
2012-02-21, 01:08:04,VALID,998.987,VALID,0,VALID,90.9832,VALID,0,VALID,24.5209,VALID,107,VALID,0.415234,
2012-02-21, 01:09:04,VALID,998.973,VALID,0,VALID,90.9832,VALID,0,VALID,24.5209,VALID,107,VALID,0.316797,
2012-02-21, 01:10:04,VALID,998.946,VALID,0,VALID,90.9527,VALID,0,VALID,24.4995,VALID,107,VALID,0.275,
2012-02-21, 01:11:04,VALID,998.945,VALID,0,VALID,91.0366,VALID,0,VALID,24.5013,VALID,107,VALID,0.555078,
2012-02-21, 01:12:04,VALID,998.947,VALID,0,VALID,91.1358,VALID,0,VALID,24.4995,VALID,107,VALID,0.118359,
2012-02-21, 01:13:04,VALID,998.976,VALID,0,VALID,91.1434,VALID,0,VALID,24.4995,VALID,107,VALID,0.364844,
2012-02-21, 01:14:04,VALID,998.954,VALID,0,VALID,91.1511,VALID,0,VALID,24.4604,VALID,107,VALID,0.571484,
2012-02-21, 01:15:04,VALID,998.961,VALID,0,VALID,91.1282,VALID,0,VALID,24.4818,VALID,107,VALID,0.475,
2012-02-21, 01:16:04,VALID,998.943,VALID,0,VALID,91.1587,VALID,0,VALID,24.4818,VALID,107,VALID,0.325781,
2012-02-21, 01:17:04,VALID,998.923,VALID,0,VALID,91.1968,VALID,0,VALID,24.4818,VALID,107,VALID,0.401172,
2012-02-21, 01:18:04,VALID,998.916,VALID,0,VALID,91.1663,VALID,0,VALID,24.4818,VALID,107,VALID,0.107422,
2012-02-21, 01:19:04,VALID,998.918,VALID,0,VALID,91.2045,VALID,0,VALID,24.4818,VALID,107,VALID,0.116016,
2012-02-21, 01:20:04,VALID,998.919,VALID,0,VALID,91.2503,VALID,0,VALID,24.4818,VALID,107,VALID,0.1875,
2012-02-21, 01:21:04,VALID,998.865,VALID,0,VALID,91.2884,VALID,0,VALID,24.4818,VALID,107,VALID,0,
2012-02-21, 01:22:04,VALID,998.901,VALID,0,VALID,91.3647,VALID,0,VALID,24.5013,VALID,107,VALID,0,
2012-02-21, 01:23:04,VALID,998.885,VALID,0,VALID,91.38,VALID,0,VALID,24.4818,VALID,107,VALID,0,
2012-02-21, 01:24:04,VALID,998.871,VALID,0,VALID,91.3952,VALID,0,VALID,24.4604,VALID,107,VALID,0,
2012-02-21, 01:25:04,VALID,998.857,VALID,0,VALID,91.38,VALID,0,VALID,24.4604,VALID,107,VALID,0,
2012-02-21, 01:26:04,VALID,998.866,VALID,0,VALID,91.4028,VALID,0,VALID,24.48,VALID,107,VALID,0,
2012-02-21, 01:27:04,VALID,998.843,VALID,0,VALID,91.4563,VALID,0,VALID,24.4604,VALID,107,VALID,0,
2012-02-21, 01:28:04,VALID,998.802,VALID,0,VALID,91.4639,VALID,0,VALID,24.4604,VALID,107,VALID,0,
2012-02-21, 01:29:04,VALID,998.809,VALID,0,VALID,91.5402,VALID,0,VALID,24.4818,VALID,107,VALID,0,
2012-02-21, 01:30:04,VALID,998.802,VALID,0,VALID,91.5631,VALID,0,VALID,24.4818,VALID,107,VALID,0,
2012-02-21, 01:31:04,VALID,998.79,VALID,0,VALID,91.5173,VALID,0,VALID,24.4623,VALID,107,VALID,0,
2012-02-21, 01:32:04,VALID,998.805,VALID,0,VALID,91.4563,VALID,0,VALID,24.4409,VALID,107,VALID,0,
2012-02-21, 01:33:04,VALID,998.823,VALID,0,VALID,91.4028,VALID,0,VALID,24.4428,VALID,114,VALID,0,
2012-02-21, 01:34:04,VALID,998.824,VALID,0,VALID,91.3876,VALID,0,VALID,24.4214,VALID,114,VALID,0,
2012-02-21, 01:35:04,VALID,998.846,VALID,0,VALID,91.2655,VALID,0,VALID,24.4019,VALID,114,VALID,0,
2012-02-21, 01:36:04,VALID,998.854,VALID,0,VALID,90.9985,VALID,0,VALID,24.4037,VALID,154,VALID,0.416016,
2012-02-21, 01:37:04,VALID,998.83,VALID,0,VALID,90.7314,VALID,0,VALID,24.3842,VALID,154,VALID,0.167578,
2012-02-21, 01:38:04,VALID,998.836,VALID,0,VALID,90.5331,VALID,0,VALID,24.3433,VALID,169,VALID,0.367969,
2012-02-21, 01:39:04,VALID,998.815,VALID,0,VALID,90.8077,VALID,0,VALID,24.3433,VALID,169,VALID,0.317969,
2012-02-21, 01:40:04,VALID,998.779,VALID,0,VALID,90.9985,VALID,0,VALID,24.3842,VALID,147,VALID,0.545703,
2012-02-21, 01:41:04,VALID,998.75,VALID,0,VALID,90.7391,VALID,0,VALID,24.3629,VALID,119,VALID,0.921094,
2012-02-21, 01:42:04,VALID,998.759,VALID,0,VALID,90.3194,VALID,0,VALID,24.3433,VALID,119,VALID,0.980859,
2012-02-21, 01:43:04,VALID,998.717,VALID,0,VALID,90.1668,VALID,0,VALID,24.3433,VALID,131,VALID,0.983203,
2012-02-21, 01:44:04,VALID,998.68,VALID,0,VALID,90.1134,VALID,0,VALID,24.3629,VALID,131,VALID,1.03477,
2012-02-21, 01:45:04,VALID,998.691,VALID,0,VALID,90.0524,VALID,0,VALID,24.3824,VALID,138,VALID,1.07852,
2012-02-21, 01:46:04,VALID,998.702,VALID,0,VALID,90.0066,VALID,0,VALID,24.4019,VALID,146,VALID,0.980078,
2012-02-21, 01:47:04,VALID,998.669,VALID,0,VALID,89.9914,VALID,0,VALID,24.4037,VALID,154,VALID,1.2457,
2012-02-21, 01:48:04,VALID,998.67,VALID,0,VALID,89.9303,VALID,0,VALID,24.4233,VALID,154,VALID,1.08672,
2012-02-21, 01:49:04,VALID,998.695,VALID,0,VALID,89.938,VALID,0,VALID,24.4428,VALID,154,VALID,1.07578,
2012-02-21, 01:50:04,VALID,998.717,VALID,0,VALID,90.2279,VALID,0,VALID,24.4818,VALID,157,VALID,1.08789,
2012-02-21, 01:51:04,VALID,998.699,VALID,0,VALID,90.6475,VALID,0,VALID,24.5013,VALID,159,VALID,1.03984,
2012-02-21, 01:52:04,VALID,998.688,VALID,0,VALID,90.8001,VALID,0,VALID,24.5404,VALID,163,VALID,1.06523,
2012-02-21, 01:53:04,VALID,998.713,VALID,0,VALID,90.8154,VALID,0,VALID,24.5404,VALID,165,VALID,0.832812,
2012-02-21, 01:54:04,VALID,998.695,VALID,0,VALID,90.6857,VALID,0,VALID,24.5599,VALID,183,VALID,0.974609,
2012-02-21, 01:55:04,VALID,998.737,VALID,0,VALID,90.5712,VALID,0,VALID,24.5794,VALID,180,VALID,0.591406,
2012-02-21, 01:56:04,VALID,998.69,VALID,0,VALID,90.472,VALID,0,VALID,24.5794,VALID,180,VALID,0.475,
2012-02-21, 01:57:04,VALID,998.696,VALID,0,VALID,90.1516,VALID,0,VALID,24.5385,VALID,180,VALID,0.423047,
2012-02-21, 01:58:04,VALID,998.727,VALID,0,VALID,89.9609,VALID,0,VALID,24.519,VALID,180,VALID,0.109766,
2012-02-21, 01:59:04,VALID,998.729,VALID,0,VALID,89.9761,VALID,0,VALID,24.5209,VALID,180,VALID,0,
2012-02-21, 02:00:04,VALID,998.72,VALID,0,VALID,89.9151,VALID,0,VALID,24.5013,VALID,180,VALID,0.157422,
2012-02-21, 02:01:04,VALID,998.734,VALID,0,VALID,89.8617,VALID,0,VALID,24.4818,VALID,178,VALID,0.597656,
2012-02-21, 02:02:04,VALID,998.712,VALID,0,VALID,89.7701,VALID,0,VALID,24.4604,VALID,172,VALID,0.357422,
2012-02-21, 02:03:04,VALID,998.692,VALID,0,VALID,89.7625,VALID,0,VALID,24.4623,VALID,172,VALID,0.376172,
2012-02-21, 02:04:04,VALID,998.701,VALID,0,VALID,89.8083,VALID,0,VALID,24.4019,VALID,172,VALID,0.2625,
2012-02-21, 02:05:04,VALID,998.691,VALID,0,VALID,89.8235,VALID,0,VALID,24.4233,VALID,172,VALID,0.231641,
2012-02-21, 02:06:04,VALID,998.661,VALID,0,VALID,89.8235,VALID,0,VALID,24.3824,VALID,172,VALID,0.390625,
2012-02-21, 02:07:04,VALID,998.675,VALID,0,VALID,89.8235,VALID,0,VALID,24.3824,VALID,172,VALID,0.220313,
2012-02-21, 02:08:04,VALID,998.674,VALID,0,VALID,89.8235,VALID,0,VALID,24.3842,VALID,172,VALID,0.128125,
2012-02-21, 02:09:04,VALID,998.656,VALID,0,VALID,89.8311,VALID,0,VALID,24.3629,VALID,172,VALID,0.0714844,
2012-02-21, 02:10:04,VALID,998.639,VALID,0,VALID,89.8235,VALID,0,VALID,24.3647,VALID,172,VALID,0.194922,
2012-02-21, 02:11:04,VALID,998.626,VALID,0,VALID,89.854,VALID,0,VALID,24.3647,VALID,172,VALID,0.296094,
2012-02-21, 02:12:04,VALID,998.626,VALID,0,VALID,89.9151,VALID,0,VALID,24.3452,VALID,172,VALID,0.420312,
2012-02-21, 02:13:04,VALID,998.615,VALID,0,VALID,89.8846,VALID,0,VALID,24.3452,VALID,172,VALID,0.763672,
2012-02-21, 02:14:04,VALID,998.598,VALID,0,VALID,89.732,VALID,0,VALID,24.3452,VALID,172,VALID,0.737891,
2012-02-21, 02:15:04,VALID,998.616,VALID,0,VALID,89.5489,VALID,0,VALID,24.3452,VALID,169,VALID,1.03594,
2012-02-21, 02:16:04,VALID,998.626,VALID,0,VALID,89.442,VALID,0,VALID,24.3452,VALID,169,VALID,1.06602,
2012-02-21, 02:17:04,VALID,998.644,VALID,0,VALID,89.2971,VALID,0,VALID,24.3257,VALID,163,VALID,0.933984,
2012-02-21, 02:18:04,VALID,998.62,VALID,0,VALID,89.2742,VALID,0,VALID,24.3257,VALID,154,VALID,1.00898,
2012-02-21, 02:19:04,VALID,998.636,VALID,0,VALID,89.2513,VALID,0,VALID,24.2848,VALID,151,VALID,0.982813,
2012-02-21, 02:20:04,VALID,998.669,VALID,0,VALID,89.2666,VALID,0,VALID,24.3062,VALID,144,VALID,0.917188,
2012-02-21, 02:21:04,VALID,998.686,VALID,0,VALID,89.2894,VALID,0,VALID,24.2671,VALID,141,VALID,1.18164,
2012-02-21, 02:22:04,VALID,998.687,VALID,0,VALID,89.2971,VALID,0,VALID,24.2476,VALID,140,VALID,1.11719,
2012-02-21, 02:23:04,VALID,998.702,VALID,0,VALID,89.3734,VALID,0,VALID,24.2263,VALID,135,VALID,1.15234,
2012-02-21, 02:24:04,VALID,998.676,VALID,0,VALID,89.4878,VALID,0,VALID,24.1872,VALID,135,VALID,1.23398,
2012-02-21, 02:25:04,VALID,998.701,VALID,0,VALID,89.5946,VALID,0,VALID,24.1696,VALID,132,VALID,1.20625,
2012-02-21, 02:26:04,VALID,998.685,VALID,0,VALID,89.7243,VALID,0,VALID,24.1696,VALID,131,VALID,1.21289,
2012-02-21, 02:27:04,VALID,998.682,VALID,0,VALID,89.9074,VALID,0,VALID,24.15,VALID,131,VALID,1.21484,
2012-02-21, 02:28:04,VALID,998.685,VALID,0,VALID,90.0143,VALID,0,VALID,24.0897,VALID,131,VALID,1.12539,
2012-02-21, 02:29:04,VALID,998.686,VALID,0,VALID,90.1287,VALID,0,VALID,24.0915,VALID,131,VALID,0.992578,
2012-02-21, 02:30:04,VALID,998.672,VALID,0,VALID,90.1516,VALID,0,VALID,24.0915,VALID,131,VALID,0.949219,
2012-02-21, 02:31:04,VALID,998.661,VALID,0,VALID,90.2813,VALID,0,VALID,24.0915,VALID,141,VALID,0.889453,
2012-02-21, 02:32:04,VALID,998.65,VALID,0,VALID,90.4415,VALID,0,VALID,24.072,VALID,141,VALID,0.816016,
2012-02-21, 02:33:04,VALID,998.674,VALID,0,VALID,90.5483,VALID,0,VALID,24.0525,VALID,141,VALID,0.725391,
2012-02-21, 02:34:04,VALID,998.63,VALID,0,VALID,90.6628,VALID,0,VALID,24.072,VALID,141,VALID,0.732031,
2012-02-21, 02:35:04,VALID,998.624,VALID,0,VALID,90.6933,VALID,0,VALID,24.0506,VALID,141,VALID,0.741406,
2012-02-21, 02:36:04,VALID,998.639,VALID,0,VALID,90.7314,VALID,0,VALID,24.0506,VALID,141,VALID,0.68125,
2012-02-21, 02:37:04,VALID,998.618,VALID,0,VALID,90.7314,VALID,0,VALID,24.072,VALID,141,VALID,0.594141,
2012-02-21, 02:38:04,VALID,998.6,VALID,0,VALID,90.7543,VALID,0,VALID,24.0506,VALID,153,VALID,0.576172,
2012-02-21, 02:39:04,VALID,998.586,VALID,0,VALID,90.7696,VALID,0,VALID,24.0506,VALID,170,VALID,0.703125,
2012-02-21, 02:40:04,VALID,998.596,VALID,0,VALID,90.8077,VALID,0,VALID,24.072,VALID,177,VALID,0.830859,
2012-02-21, 02:41:04,VALID,998.56,VALID,0,VALID,90.8077,VALID,0,VALID,24.0915,VALID,177,VALID,0.400391,
2012-02-21, 02:42:04,VALID,998.569,VALID,0,VALID,90.8154,VALID,0,VALID,24.0915,VALID,180,VALID,0.746484,
2012-02-21, 02:43:04,VALID,998.539,VALID,0,VALID,90.7925,VALID,0,VALID,24.111,VALID,180,VALID,0.383594,
2012-02-21, 02:44:04,VALID,998.577,VALID,0,VALID,90.7467,VALID,0,VALID,24.0897,VALID,180,VALID,0.155469,
2012-02-21, 02:45:04,VALID,998.576,VALID,0,VALID,90.6323,VALID,0,VALID,24.0915,VALID,180,VALID,0,
2012-02-21, 02:46:04,VALID,998.575,VALID,0,VALID,90.5941,VALID,0,VALID,24.072,VALID,180,VALID,0,
2012-02-21, 02:47:04,VALID,998.545,VALID,0,VALID,90.7238,VALID,0,VALID,24.0506,VALID,180,VALID,0.366797,
2012-02-21, 02:48:04,VALID,998.56,VALID,0,VALID,90.8154,VALID,0,VALID,24.0506,VALID,180,VALID,0.3875,
2012-02-21, 02:49:04,VALID,998.523,VALID,0,VALID,90.8459,VALID,0,VALID,24.0329,VALID,180,VALID,0.302344,
2012-02-21, 02:50:04,VALID,998.508,VALID,0,VALID,90.762,VALID,0,VALID,23.9939,VALID,180,VALID,0.369141,
2012-02-21, 02:51:04,VALID,998.51,VALID,0,VALID,90.8383,VALID,0,VALID,23.9549,VALID,180,VALID,0.340234,
2012-02-21, 02:52:04,VALID,998.508,VALID,0,VALID,91.0214,VALID,0,VALID,23.9354,VALID,180,VALID,0.344531,
2012-02-21, 02:53:04,VALID,998.487,VALID,0,VALID,91.09,VALID,0,VALID,23.8963,VALID,180,VALID,0.205859,
2012-02-21, 02:54:04,VALID,998.492,VALID,0,VALID,91.1282,VALID,0.104696,VALID,23.8555,VALID,180,VALID,0.701563,
2012-02-21, 02:55:04,VALID,998.482,VALID,0,VALID,91.174,VALID,0,VALID,23.7775,VALID,180,VALID,0.745703,
2012-02-21, 02:56:04,VALID,998.444,VALID,0,VALID,91.4944,VALID,0,VALID,23.7579,VALID,22,VALID,0.775781,
2012-02-21, 02:57:04,VALID,998.437,VALID,0,VALID,91.7691,VALID,0,VALID,23.7793,VALID,22,VALID,0.653906,
2012-02-21, 02:58:04,VALID,998.438,VALID,0,VALID,91.8454,VALID,0,VALID,23.7793,VALID,22,VALID,0.403516,
2012-02-21, 02:59:04,VALID,998.431,VALID,0,VALID,91.7462,VALID,0,VALID,23.7793,VALID,22,VALID,0.605859,
2012-02-21, 03:00:04,VALID,998.44,VALID,0,VALID,91.7004,VALID,0,VALID,23.7597,VALID,22,VALID,0.491016,
2012-02-21, 03:01:04,VALID,998.401,VALID,0,VALID,91.7767,VALID,0,VALID,23.7384,VALID,22,VALID,0.402344,
2012-02-21, 03:02:04,VALID,998.41,VALID,0,VALID,91.853,VALID,0,VALID,23.7402,VALID,22,VALID,0.312891,
2012-02-21, 03:03:04,VALID,998.372,VALID,0,VALID,91.9445,VALID,0,VALID,23.6994,VALID,22,VALID,0.0015625,
2012-02-21, 03:04:04,VALID,998.348,VALID,0,VALID,92.0132,VALID,0.104696,VALID,23.7207,VALID,22,VALID,0,
2012-02-21, 03:05:04,VALID,998.386,VALID,0,VALID,92.0285,VALID,0,VALID,23.6817,VALID,22,VALID,0,
2012-02-21, 03:06:04,VALID,998.376,VALID,0,VALID,91.998,VALID,0,VALID,23.6622,VALID,22,VALID,0,
2012-02-21, 03:07:04,VALID,998.391,VALID,0,VALID,92.0132,VALID,0,VALID,23.6214,VALID,22,VALID,0,
2012-02-21, 03:08:04,VALID,998.391,VALID,0,VALID,92.0361,VALID,0,VALID,23.6214,VALID,22,VALID,0,
2012-02-21, 03:09:04,VALID,998.42,VALID,0,VALID,92.0361,VALID,0,VALID,23.6036,VALID,22,VALID,0,
2012-02-21, 03:10:04,VALID,998.441,VALID,0,VALID,92.2497,VALID,0,VALID,23.5841,VALID,22,VALID,0.514063,
2012-02-21, 03:11:04,VALID,998.459,VALID,0,VALID,92.4252,VALID,0,VALID,23.5646,VALID,50,VALID,0.791406,
2012-02-21, 03:12:04,VALID,998.456,VALID,0,VALID,92.5626,VALID,0,VALID,23.5841,VALID,50,VALID,0.672266,
2012-02-21, 03:13:04,VALID,998.42,VALID,0,VALID,92.677,VALID,0,VALID,23.5823,VALID,50,VALID,0.607031,
2012-02-21, 03:14:04,VALID,998.44,VALID,0,VALID,92.6236,VALID,0,VALID,23.6019,VALID,50,VALID,0.432031,
2012-02-21, 03:15:04,VALID,998.447,VALID,0,VALID,92.6465,VALID,0,VALID,23.6232,VALID,50,VALID,0.502344,
2012-02-21, 03:16:04,VALID,998.391,VALID,0,VALID,92.6617,VALID,0,VALID,23.6427,VALID,50,VALID,0.637891,
2012-02-21, 03:17:04,VALID,998.406,VALID,0,VALID,92.8448,VALID,0,VALID,23.6622,VALID,50,VALID,0.518359,
2012-02-21, 03:18:04,VALID,998.45,VALID,0,VALID,92.944,VALID,0,VALID,23.6799,VALID,50,VALID,0.5375,
2012-02-21, 03:19:04,VALID,998.435,VALID,0,VALID,93.0127,VALID,0,VALID,23.7207,VALID,104,VALID,0.683203,
2012-02-21, 03:20:04,VALID,998.483,VALID,0,VALID,92.9822,VALID,0,VALID,23.7207,VALID,104,VALID,0.636328,
2012-02-21, 03:21:04,VALID,998.507,VALID,0,VALID,92.8906,VALID,0,VALID,23.7597,VALID,104,VALID,0.535547,
2012-02-21, 03:22:04,VALID,998.524,VALID,0,VALID,92.8067,VALID,0,VALID,23.7811,VALID,104,VALID,0.513281,
2012-02-21, 03:23:04,VALID,998.506,VALID,0,VALID,92.6617,VALID,0,VALID,23.7811,VALID,104,VALID,0.227734,
2012-02-21, 03:24:04,VALID,998.482,VALID,0,VALID,92.5549,VALID,0,VALID,23.7811,VALID,104,VALID,0.423047,
2012-02-21, 03:25:04,VALID,998.457,VALID,0,VALID,92.4481,VALID,0,VALID,23.7811,VALID,104,VALID,0,
2012-02-21, 03:26:04,VALID,998.445,VALID,0,VALID,92.3718,VALID,0,VALID,23.7616,VALID,104,VALID,0.00703125,
2012-02-21, 03:27:04,VALID,998.44,VALID,0,VALID,92.3108,VALID,0,VALID,23.7207,VALID,104,VALID,0,
2012-02-21, 03:28:04,VALID,998.439,VALID,0,VALID,92.2726,VALID,0,VALID,23.7207,VALID,104,VALID,0.182031,
2012-02-21, 03:29:04,VALID,998.456,VALID,0,VALID,92.3031,VALID,0,VALID,23.7207,VALID,104,VALID,0.164844,
2012-02-21, 03:30:04,VALID,998.469,VALID,0,VALID,92.3566,VALID,0,VALID,23.742,VALID,104,VALID,0.223047,
2012-02-21, 03:31:04,VALID,998.52,VALID,0,VALID,92.4176,VALID,0,VALID,23.7207,VALID,104,VALID,0.224609,
2012-02-21, 03:32:05,VALID,998.579,VALID,0,VALID,92.4786,VALID,0,VALID,23.7402,VALID,104,VALID,0.339063,
2012-02-21, 03:33:05,VALID,998.586,VALID,0,VALID,92.4939,VALID,0,VALID,23.7207,VALID,104,VALID,0.446875,
2012-02-21, 03:34:05,VALID,998.621,VALID,0,VALID,92.5091,VALID,0,VALID,23.7579,VALID,104,VALID,0.596875,
2012-02-21, 03:35:05,VALID,998.649,VALID,0,VALID,92.5549,VALID,0,VALID,23.7988,VALID,104,VALID,0.680078,
2012-02-21, 03:36:05,VALID,998.672,VALID,0,VALID,92.5931,VALID,0,VALID,23.7775,VALID,114,VALID,0.723047,
2012-02-21, 03:37:05,VALID,998.671,VALID,0,VALID,92.616,VALID,0,VALID,23.8183,VALID,117,VALID,0.385156,
2012-02-21, 03:38:05,VALID,998.688,VALID,0,VALID,92.6312,VALID,0,VALID,23.836,VALID,117,VALID,0.378516,
2012-02-21, 03:39:05,VALID,998.7,VALID,0,VALID,92.6694,VALID,0,VALID,23.836,VALID,117,VALID,0.259766,
2012-02-21, 03:40:05,VALID,998.709,VALID,0,VALID,92.6999,VALID,0,VALID,23.8555,VALID,112,VALID,0.692969,
2012-02-21, 03:41:05,VALID,998.737,VALID,0,VALID,92.7228,VALID,0,VALID,23.8963,VALID,98,VALID,0.588672,
2012-02-21, 03:42:05,VALID,998.748,VALID,0,VALID,92.7075,VALID,0,VALID,23.8945,VALID,98,VALID,0.522656,
2012-02-21, 03:43:05,VALID,998.725,VALID,0,VALID,92.6846,VALID,0,VALID,23.914,VALID,98,VALID,0.371875,
2012-02-21, 03:44:05,VALID,998.72,VALID,0,VALID,92.7228,VALID,0,VALID,23.9336,VALID,93,VALID,0.459375,
2012-02-21, 03:45:05,VALID,998.754,VALID,0,VALID,92.7685,VALID,0,VALID,23.9531,VALID,33,VALID,0.811719,
2012-02-21, 03:46:05,VALID,998.758,VALID,0,VALID,92.7457,VALID,0,VALID,23.9531,VALID,25,VALID,0.776563,
2012-02-21, 03:47:05,VALID,998.8,VALID,0,VALID,92.7609,VALID,0,VALID,23.9939,VALID,25,VALID,0.404297,